Regional Weather Roundup
Issued by NWS

Home | Current Version | Previous Version | Text Only | Print | Product List | Glossary On
Versions: 1 2 3 4 5 6 7 8 9 10 11 12 13 14 15 16 17 18 19 20 21 22 23 24 25 26 27 28 29 30 31 32 33 34 35 36 37 38 39 40 41 42 43 44 45 46 47 48 49 50
000
ASUS43 KDTX 201910
RWRMI
MICHIGAN HOURLY REGIONAL WEATHER ROUNDUP
NATIONAL WEATHER SERVICE DETROIT/PONTIAC MI
300 PM EDT MON OCT 20 2014

NOTE: "FAIR" INDICATES FEW OR NO CLOUDS BELOW 12,000 FEET WITH NO
SIGNIFICANT WEATHER AND/OR OBSTRUCTION TO VISIBILITY.

MIZ047>049-052>055-059>063-066>070-074>076-081>083-202000-
SOUTHEAST LOWER MICHIGAN

CITY           SKY/WX    TMP DP  RH WIND       PRES   REMARKS
ADRIAN         CLOUDY    52  48  86 NW7       29.81S
ALMA           PTSUNNY   60  49  65 W6        29.77F
ANN ARBOR      CLOUDY    57  47  69 SW3       29.78S
BAD AXE        CLOUDY    51  49  90 W6        29.78S
CARO           CLOUDY    54  48  80 NW6       29.77S
DETROIT CITY   PTSUNNY   59  47  64 W7        29.78F
DETROIT        CLOUDY    57  49  74 SW7       29.79F
FLINT          CLOUDY    57  47  69 W8        29.78S
GROSSE ILE     PTSUNNY   55  50  82 SW6       29.78R
HILLSDALE      RAIN      52  51  98 W5        29.80F
HOWELL         CLOUDY    55  47  76 W10       29.78S

CITY           SKY/WX    TMP DP  RH WIND       PRES   REMARKS
JACKSON        CLOUDY    52  48  86 W9        29.80S
LAMBERTVILLE   CLOUDY    54  50  87 SW7       29.81S
LANSING        CLOUDY    57  47  69 W10       29.79S
LAPEER         CLOUDY    55  46  73 SW5       29.78S
MASON          CLOUDY    55  47  75 W8        29.79R
MONROE         DRIZZLE   54  48  82 W8        29.79R
MT. CLEMENS    CLOUDY    56  46  69 W9        29.76F
PONTIAC        LGT RAIN  53  46  77 SW6       29.77F
PORT HOPE        N/A     53  47  79 W3        29.75S
PORT HURON     LGT RAIN  50  48  93 CALM      29.79S
TRI CITIES     CLOUDY    57  48  72 CALM      29.78F
TROY           CLOUDY    57  47  67 SW3       29.80S
SAGINAW HB     CLOUDY    57  48  72 NW5       29.77S
$$
MIZ043>046-050>051-056>058-064>065-071>073-077>080-202000-
SOUTHWEST LOWER MICHIGAN

CITY           SKY/WX    TMP DP  RH WIND       PRES   REMARKS
BATTLE CREEK   CLOUDY    55  48  77 W9        29.80F
BENTON HARBOR  CLOUDY    55  49  80 W9        29.83R
BIG RAPIDS     CLOUDY    55  51  86 NW13      29.78S
COLDWATER      CLOUDY    54  51  92 W3        29.81S
FREMONT        CLOUDY    56  48  74 N9        29.80R
HOLLAND        CLOUDY    59  50  72 W9        29.81S
GRAND RAPIDS   PTSUNNY   63  51  65 SW6       29.77F
IONIA          MOCLDY    61  49  64 W9        29.77S
KALAMAZOO      CLOUDY    57  49  74 SW6       29.81S
LUDINGTON      CLOUDY    52  46  82 N14G22    29.84R
MARSHALL       CLOUDY    52  49  89 SW7       29.79F
MOUNT PLEASANT CLOUDY    59  48  68 CALM      29.76S
MUSKEGON       CLOUDY    59  49  69 W7        29.80S
SOUTH HAVEN    CLOUDY    57  50  78 W7        29.82R
$$
MIZ016>042-202000-
NORTHERN LOWER MICHIGAN

CITY           SKY/WX    TMP DP  RH WIND       PRES   REMARKS
ALPENA         CLOUDY    52  47  83 NW6       29.75S
BEAVER ISLAND  CLOUDY    49  43  80 NW6       29.82R
BELLAIRE       CLOUDY    49  45  84 CALM      29.81S
CADILLAC       CLOUDY    48  45  91 NW10      29.80R
CHARLEVOIX     CLOUDY    49  45  84 NW10G18   29.84R
FRANKFORT      CLOUDY    51  44  76 N7        29.84S
GAYLORD        CLOUDY    46  43  89 VRB5      29.78S
GRAYLING       CLOUDY    51  45  78 NW12G21   29.79S
HARBOR SPRINGS CLOUDY    49  44  82 NW10      29.80S
HOUGHTON LAKE  CLOUDY    51  44  77 NW14G22   29.79R
MANISTEE       CLOUDY    50  43  76 N10G17    29.85R
OSCODA         CLOUDY    52  49  89 NW5       29.75S
PELLSTON       CLOUDY    48  44  86 NW16      29.80R
TRAVERSE CITY  CLOUDY    50  43  77 NW12      29.82R
$$
MIZ007>008-015-202000-
EASTERN UPPER MICHIGAN

CITY           SKY/WX    TMP DP  RH WIND       PRES   REMARKS
KINROSS        CLOUDY    46  45  93 NW12      29.77S
MACKINAC ISLAN CLOUDY    48  44  85 NW9G17    29.78S
NEWBERRY       CLOUDY    45  41  87 NW8G23    29.80S
S. S. MARIE    CLOUDY    49  44  83 NW10      29.76S
MUNISING         N/A     48  42  80 N17G25    29.85R
$$
MIZ004>006-011>014-085-202000-
CENTRAL UPPER MICHIGAN

CITY           SKY/WX    TMP DP  RH WIND       PRES   REMARKS
MANISTIQUE     CLOUDY    47  42  82 N15G24    29.83R
ESCANABA       CLOUDY    48  41  76 N10       29.86R
MENOMINEE      CLOUDY    52  41  66 N13G20    29.87R
SAWYER-GWINN   CLOUDY    45  39  81 N14       29.86R
$$
MIZ001>003-009>011-084-202000-
WESTERN UPPER MICHIGAN

CITY           SKY/WX    TMP DP  RH WIND       PRES   REMARKS
IRON MOUNTAIN  CLOUDY    48  42  80 NW7       29.87S
HOUGHTON       CLOUDY    45  39  79 N9G18     29.92R
COPPER HARBOR    N/A     45  41  86 N18       29.90R
IRONWOOD       CLOUDY    48  43  81 N9        29.94R
$$

ABBREVIATIONS USED IN REMARKS
   TC - TEMPERATURE IN CELSIUS
  WCI - WIND CHILL INDEX
   HX - HEAT INDEX
  VSB - VISIBILITY




USA.gov is the U.S. government's official web portal to all federal, state and local government web resources and services.